Location: Glion
(46.4330°N, 6.9246°E)
Time: 17:43:40
(UTC+00:00)

SL-08 RB Rocket - Pass Details

Date: 03 March 2021
Orbit: 646 x 684 km, 97.8° (Epoch: 23 April)

Event Time Altitude Azimuth Distance (km) Brightness Sun altitude
Rises 18:49:55 0° 171° (S) 2,962 6.9 -16.0°
Reaches altitude 10° 18:52:07 10° 173° (S) 2,060 6.1 -16.4°
Maximum altitude 18:56:36 72° 258° (WSW) 698 3.9 -17.2°
Drops below altitude 10° 19:01:11 10° 343° (NNW) 2,100 6.6 -17.9°
Sets 19:03:27 0° 346° (NNW) 3,024 7.4 -18.3°
